星链-31738 (STARLINK-31738 )

导读 | 星芒AI

STARLINK-31738 是 SpaceX Starlink 卫星互联网项目中的第 31738 颗卫星。该卫星属于 Starlink 群体部署计划的一部分,旨在通过低轨卫星提供全球高速互联网服务。它于近期发射,加入近地轨道运行,与其他 Starlink 卫星共同构建覆盖全球的通信网络。该卫星采用先进推进系统和激光通信技术,具备高带宽和低延迟特性,有助于提升偏远地区的网络接入能力。Starlink 项目由数千颗卫星组成,致力于实现全球无缝互联网连接。

基本信息
目录编号:
59535
目录名称:
STARLINK-31738
国际标识:
2024-074B
轨道中心:
EARTH
卫星名称:
星链-31738
卫星全名:
星链-31738 (STARLINK-31738 )
卫星状态:
在轨 (已飞行611 天)
发射日期:
2024-04-18 UTC
国别 :
美国 (US)
星等 :
--
轨道信息
数据来源 国际轨道数据
星历时间: 2025-12-19T19:59:26+0800
14小时前
查看轨道信息
半长轴: 6861.252km
偏心率: 0.0001909
轨道倾角: 43.008°
近地点辐角 243.372°
升交点赤经 72.569°
平近点角 116.693°
近地点: 481.805km
远地点: 484.425km
周期: 94.268分钟
每日圈数: 15.27558
详细信息
固有亮度:
5
最大亮度:
1.5
卫星平台:
Starlink v2.0 mini
覆盖范围:
全球
运营商:
太空探索技术公司
运营商所在国:
美国
制造商(研发单位):
太空探索技术公司
制造商所在国:
美国
使用方式:
暂无
卫星简介
星链(Starlink)计划是由太空探索技术公司(SpaceX)提出的一个巨型低轨卫星互联网星座项目,计划在2019年至2024年间在太空搭建由约1.2万颗卫星组成的“星链”网络,其中1584颗将部署在地球上空550千米处的近地轨道,并从2020年开始工作。该卫星仍在工作。
2D轨道图
3D轨道图
轨道高度分析图
轨道倾角分析图
轨道综合分析图
查看轨道综合分析图